Location: Plainartige
(45.6866°N, 1.7993°E)
Time: 11:50:14
(UTC+00:00)

deb r/b Ablestar - Pass Details

Date: 30 September 2021
Orbit: 843 x 997 km, 67.7° (Epoch: 22 October)

Event Time Altitude Azimuth Distance (km) Brightness Sun altitude
Rises 20:54:09 0° 324° (NW) 3,416 ? -33.8°
Reaches altitude 10° 20:56:38 10° 320° (NW) 2,485 ? -34.2°
Enters shadow 21:00:45 42° 288° (WNW) 1,206 ? -34.7°
